CST,Max TemperatureF,Mean TemperatureF,Min TemperatureF,Max Dew PointF,MeanDew PointF,Min DewpointF,Max Humidity, Mean Humidity, Min Humidity, Max Sea Level PressureIn, Mean Sea Level PressureIn, Min Sea Level PressureIn, Max VisibilityMiles, Mean VisibilityMiles, Min VisibilityMiles, Max Wind SpeedMPH, Mean Wind SpeedMPH, Max Gust SpeedMPH,PrecipitationIn, CloudCover, Events, WindDirDegrees
2012-11-1,81,60,39,45,40,35,85,56,21,30.12,30.04,29.96,10,10,10,10,3,,0.00,0,,40
2012-11-2,85,62,40,48,41,36,86,59,18,30.03,29.97,29.89,10,10,10,13,3,17,0.00,1,,78
2012-11-3,73,61,51,49,42,32,74,54,31,30.16,30.06,29.95,10,10,10,29,8,36,0.00,2,,331
2012-11-4,75,58,41,48,44,38,85,64,36,30.23,30.16,30.09,10,10,10,8,3,,0.00,0,,310
2012-11-5,75,58,40,43,36,28,80,52,24,30.23,30.16,30.11,10,10,1,18,5,28,0.00,0,,287
2012-11-6,80,59,38,39,33,30,73,53,18,30.22,30.16,30.09,10,10,10,9,4,,0.00,0,,334
2012-11-7,82,60,38,42,37,33,81,58,19,30.19,30.10,30.00,10,10,10,12,3,,0.00,0,,312
2012-11-8,89,64,39,44,35,28,69,42,14,30.05,29.96,29.86,10,10,10,13,4,,0.00,0,,169
2012-11-9,87,66,45,53,40,33,65,40,17,30.00,29.91,29.83,10,10,10,15,4,21,0.00,0,,135
2012-11-10,86,66,45,52,42,33,85,51,15,29.86,29.79,29.68,10,9,3,23,5,30,0.00,2,,190
2012-11-11,63,50,35,34,20,5,45,28,13,30.34,30.07,29.79,10,10,10,26,11,32,0.00,0,,291
2012-11-12,56,40,23,14,7,3,42,29,15,30.51,30.41,30.35,10,10,4,8,4,,0.00,0,,270
2012-11-13,63,50,36,25,21,13,56,41,22,30.38,30.29,30.18,10,10,7,10,5,,0.00,0,,74
2012-11-14,63,45,27,27,23,20,74,51,23,30.39,30.29,30.19,10,10,10,8,3,,0.00,0,,1
2012-11-15,69,49,29,34,27,20,76,48,24,30.26,30.19,30.13,10,10,7,8,3,,0.00,0,,304
2012-11-16,66,56,46,45,33,20,76,45,30,30.36,30.28,30.22,10,10,10,13,7,,0.00,0,,12
2012-11-17,66,51,36,48,44,34,94,72,49,30.27,30.20,30.13,10,9,5,8,4,,0.00,1,,94
2012-11-18,68,58,48,52,48,42,85,74,55,30.18,30.13,30.07,10,10,10,7,2,,0.00,3,Rain,89
2012-11-19,75,58,42,50,42,35,94,66,28,30.25,30.19,30.14,10,10,7,9,2,,0.00,0,,310
2012-11-20,73,55,37,37,35,31,79,49,23,30.31,30.23,30.17,10,10,7,8,3,,0.00,0,,298
2012-11-21,71,58,46,48,40,34,67,53,37,30.23,30.15,30.07,10,10,10,8,2,,0.00,1,,97
2012-11-22,82,64,45,49,42,34,87,58,20,30.15,30.07,30.00,10,10,10,10,2,18,0.00,0,,245
2012-11-23,61,50,36,37,24,18,56,35,22,30.56,30.41,30.15,10,9,2,16,8,21,0.00,1,,15
2012-11-24,68,48,29,35,25,17,63,46,27,30.46,30.26,30.05,10,10,7,10,3,,0.00,0,,207
2012-11-25,79,57,35,42,33,28,82,48,20,30.05,29.96,29.88,10,10,10,25,7,32,0.00,0,,229
2012-11-26,80,61,42,35,30,24,62,40,16,30.39,30.06,29.92,10,10,7,18,7,23,0.00,1,,355
2012-11-27,57,44,31,28,25,22,69,50,32,30.48,30.38,30.29,10,10,10,10,5,16,0.00,0,,37
2012-11-28,74,51,28,38,28,19,69,51,24,30.34,30.25,30.15,10,10,10,14,5,,0.00,0,,76
2012-11-29,78,56,34,40,33,28,84,52,17,30.18,30.12,30.04,10,10,10,14,2,20,0.00,0,,260
2012-11-30,81,56,32,36,30,25,74,47,16,30.16,30.09,30.00,10,10,7,21,4,26,0.00,0,,196